Miscellaneous Local Product
Issued by NWS North Platte, NE

Home | Current Version | Previous Version | Graphics & Text | Print | Product List | Glossary On
Versions: 1 2 3 4 5 6 7 8 9 10 11 12 13 14 15 16 17 18 19 20 21 22 23 24 25 26 27 28 29 30 31 32 33 34 35 36 37 38 39 40 41 42 43 44 45 46 47 48 49 50
762
AXUS43 KLBF 091210
MISLBF


WESTERN AND NORTH CENTRAL NEBRASKA HOURLY WEATHER ROUNDUP
NATIONAL WEATHER SERVICE NORTH PLATTE NE
600 AM CST FRI DEC 09 2016

NOTE: "FAIR" INDICATES FEW OR NO CLOUDS BELOW 12,000 FEET WITH NO
SIGNIFICANT WEATHER AND/OR OBSTRUCTIONS TO VISIBILITY.

NOTE: STATIONS NOT REPORTING VARIABLES SUCH AS SKY/WEATHER OR
PRESSURE ARE PROVIDED BY RAWS AND APRS NETWORKS AND ARE NOT UNDER
NATIONAL WEATHER SERVICE QUALITY CONTROL.

...OBSERVATIONS IN AND NEAR THE EASTERN PANHANDLE OF NEBRASKA...

CITY           SKY/WX    TMP DP  RH WIND       PRES   REMARKS
PINE RIDGE     FLURRIES   9   4  80 NE8       30.21F WCI  -3
CHADRON        CLOUDY     6   0  76 N8        30.21S WCI  -7
ALLIANCE       CLOUDY    12   5  73 S14G24    30.13F WCI  -3
SIDNEY         CLOUDY    13   6  74 S16       30.13F WCI  -3
CRESCENT LAKE    N/A     11   4  74 S13         N/A  WCI  -4
$$

...OBSERVATIONS IN NORTHERN NEBRASKA AND FAR SOUTHERN SOUTH DAKOTA...

CITY           SKY/WX    TMP DP  RH WIND       PRES   REMARKS
WINNER         FAIR       3  -1  83 E7        30.47F WCI  -9
VALENTINE      CLOUDY     3  -2  79 E6        30.39F WCI  -8
THEDFORD       CLOUDY     9   2  73 SE8       30.35S WCI  -3
AINSWORTH      MOCLDY     5   2  84 SE7       30.40F WCI  -7
O`NEILL        CLOUDY     5   1  85 CALM      30.49F
ORD            CLOUDY     4  -1  80 CALM      30.47F
BROKEN BOW     CLOUDY     7   1  76 SE10      30.40F WCI  -8
VALENTINE NWR    N/A      4  -3  72 SE9         N/A  WCI -10
BUTTE            N/A      3   0  87 CALM        N/A
HALSEY           N/A      3  -4  73 SE5         N/A  WCI  -6
CHAMBERS         N/A      6 -10  47 CALM        N/A
EWING            N/A      5   2  86 CALM        N/A
$$

...OBSERVATIONS IN SOUTHWEST NEBRASKA AND FAR NORTHEAST COLORADO...

CITY           SKY/WX    TMP DP  RH WIND       PRES   REMARKS
WRAY           FAIR      10   5  79 S7        30.24F WCI   0
HOLYOKE        FAIR      14   9  79 S12       30.23S WCI   0
IMPERIAL       CLOUDY    12   4  70 SE12      30.29F WCI  -2
OGALLALA       CLOUDY    14   7  73 S12       30.28F WCI   0
NORTH PLATTE   CLOUDY     7   2  80 SE7       30.36F WCI  -5
MCCOOK         CLOUDY     9   3  77 E5        30.38F WCI   1
LEXINGTON      CLOUDY     8   4  83 E3        30.44S
STAPLETON        N/A      7   2  79 CALM        N/A
GOTHENBURG       N/A      6   2  82 E3          N/A
CALLAWAY         N/A     10   6  82 S8          N/A  WCI  -2
$$

...OBSERVATIONS IN CENTRAL LINCOLN COUNTY AREA...

CITY           SKY/WX    TMP DP  RH WIND       PRES   REMARKS
N.P. AIRPORT   CLOUDY     7   2  80 SE7       30.36F WCI  -5
N.P. DOWNTOWN    N/A      9   4  78 CALM        N/A
N.P. SOUTHEAST   N/A      8   3  80 CALM        N/A
N.P. HILLCREST   N/A      7   3  83 SE7         N/A  WCI  -4
$$

...SOME OBSERVATIONS FROM AROUND THE REGION...

CITY           SKY/WX    TMP DP  RH WIND       PRES   REMARKS
LARAMIE        CLOUDY    28  20  71 SW13      30.01R WCI  17
CHEYENNE       CLOUDY    14   7  73 E6        29.99R WCI   5
DENVER         CLOUDY     6   1  80 CALM      30.06F
AKRON          CLOUDY     7   0  73 S9        30.11F WCI  -7
SCOTTSBLUFF    CLOUDY    16   7  67 SE13      30.11F WCI   2
RAPID CITY     CLOUDY    -1  -5  82 N10       30.32R WCI -17
BISMARCK       CLEAR    -12 -16  82 CALM      30.56S
PIERRE         CLOUDY     2  -2  83 E6        30.51F WCI  -9
SIOUX FALLS    PTCLDY    -1  -4  87 NW3       30.55F
OMAHA          CLEAR      7   1  76 N3        30.63S
GRAND ISLAND   CLOUDY     6   2  83 E5        30.52F WCI  -3
KANSAS CITY    CLEAR     12   6  77 N5        30.63F WCI   4
WICHITA        CLOUDY    17  10  74 E6        30.60F WCI   9
OKLAHOMA CITY  CLOUDY    23  12  62 E7        30.62S WCI  15
DALLAS         MOCLDY    28  21  75 N3        30.63S
AMARILLO       CLOUDY    26  18  71 S20       30.37F WCI  12
DODGE CITY     CLOUDY    20   6  55 SE14      30.42F WCI   7
HAYS           CLOUDY    17  11  77 SE10      30.49  WCI   5
GOODLAND       CLOUDY     8   4  83 SE10      30.25F WCI  -6
$$




USA.gov is the U.S. government's official web portal to all federal, state and local government web resources and services.